Time,TemperatureF,DewpointF,PressureIn,WindDirection,WindDirectionDegrees,WindSpeedMPH,WindSpeedGustMPH,Humidity,HourlyPrecipIn,Conditions,Clouds,dailyrainin,SoftwareType,DateUTC
2013-07-14 00:00:00,67.0,66.0,30.39,SW,225,0.0,3.0,96,0.00,,,0.00,Rainwise IP-100,2013-07-14 04:00:00,
2013-07-14 00:01:00,67.0,66.0,30.39,SW,225,1.0,3.0,96,0.00,,,0.00,Rainwise IP-100,2013-07-14 04:01:00,
2013-07-14 00:06:00,67.0,66.3,30.39,SW,225,0.0,3.0,97,0.00,,,0.00,Rainwise IP-100,2013-07-14 04:06:00,
2013-07-14 00:08:00,67.0,66.3,30.39,SW,225,0.0,0.0,97,0.00,,,0.00,Rainwise IP-100,2013-07-14 04:08:00,
2013-07-14 00:13:00,66.0,65.0,30.39,ESE,112,0.0,4.0,97,0.00,,,0.00,Rainwise IP-100,2013-07-14 04:13:00,
2013-07-14 00:18:00,66.0,65.5,30.39,SSE,157,0.0,2.0,99,0.00,,,0.00,Rainwise IP-100,2013-07-14 04:18:00,
2013-07-14 00:23:00,67.0,66.7,30.40,SSW,202,4.0,4.0,99,0.00,,,0.00,Rainwise IP-100,2013-07-14 04:23:00,
2013-07-14 00:28:00,68.0,66.3,30.39,South,180,6.0,6.0,94,0.00,,,0.00,Rainwise IP-100,2013-07-14 04:28:00,
2013-07-14 00:33:00,69.0,66.7,30.39,SSE,157,6.0,7.0,93,0.00,,,0.00,Rainwise IP-100,2013-07-14 04:33:00,
2013-07-14 00:38:00,68.0,66.3,30.39,SSW,202,7.0,7.0,94,0.00,,,0.00,Rainwise IP-100,2013-07-14 04:38:00,
2013-07-14 00:43:00,68.0,66.3,30.39,SSW,202,6.0,8.0,94,0.00,,,0.00,Rainwise IP-100,2013-07-14 04:43:00,
2013-07-14 00:48:00,68.0,66.3,30.39,SSW,202,6.0,7.0,94,0.00,,,0.00,Rainwise IP-100,2013-07-14 04:48:00,
2013-07-14 00:53:00,69.0,66.7,30.39,SSW,202,7.0,8.0,93,0.00,,,0.00,Rainwise IP-100,2013-07-14 04:53:00,
2013-07-14 00:58:00,69.0,66.3,30.38,South,180,6.0,9.0,91,0.00,,,0.00,Rainwise IP-100,2013-07-14 04:58:00,
2013-07-14 01:03:00,70.0,67.0,30.38,SSE,157,8.0,9.0,90,0.00,,,0.00,Rainwise IP-100,2013-07-14 05:03:00,
2013-07-14 01:08:00,70.0,67.0,30.38,South,180,5.0,10.0,90,0.00,,,0.00,Rainwise IP-100,2013-07-14 05:08:00,
2013-07-14 01:13:00,69.0,66.3,30.38,South,180,6.0,8.0,91,0.00,,,0.00,Rainwise IP-100,2013-07-14 05:13:00,
2013-07-14 01:18:00,70.0,67.0,30.38,South,180,7.0,9.0,91,0.00,,,0.00,Rainwise IP-100,2013-07-14 05:18:00,
2013-07-14 01:23:00,69.0,66.3,30.38,South,180,6.0,9.0,91,0.00,,,0.00,Rainwise IP-100,2013-07-14 05:23:00,
2013-07-14 01:28:00,70.0,67.0,30.38,South,180,6.0,9.0,90,0.00,,,0.00,Rainwise IP-100,2013-07-14 05:28:00,
2013-07-14 01:33:00,69.0,66.3,30.38,South,180,5.0,8.0,91,0.00,,,0.00,Rainwise IP-100,2013-07-14 05:33:00,
2013-07-14 01:38:00,69.0,66.7,30.38,SSE,157,4.0,7.0,93,0.00,,,0.00,Rainwise IP-100,2013-07-14 05:38:00,
2013-07-14 01:43:00,69.0,66.7,30.38,South,180,6.0,8.0,93,0.00,,,0.00,Rainwise IP-100,2013-07-14 05:43:00,
2013-07-14 01:48:00,69.0,66.7,30.38,South,180,6.0,7.0,93,0.00,,,0.00,Rainwise IP-100,2013-07-14 05:48:00,
2013-07-14 01:53:00,68.0,66.7,30.38,South,180,6.0,9.0,95,0.00,,,0.00,Rainwise IP-100,2013-07-14 05:53:00,
2013-07-14 01:58:00,68.0,67.0,30.39,South,180,6.0,9.0,97,0.00,,,0.00,Rainwise IP-100,2013-07-14 05:58:00,
2013-07-14 02:03:00,67.0,66.3,30.39,South,180,7.0,10.0,97,0.00,,,0.00,Rainwise IP-100,2013-07-14 06:03:00,
2013-07-14 02:08:00,68.0,67.0,30.39,SSW,202,5.0,10.0,97,0.00,,,0.00,Rainwise IP-100,2013-07-14 06:08:00,
2013-07-14 02:13:00,68.0,67.0,30.39,South,180,8.0,10.0,97,0.00,,,0.00,Rainwise IP-100,2013-07-14 06:13:00,
2013-07-14 02:18:00,69.0,67.0,30.38,South,180,7.0,12.0,94,0.00,,,0.00,Rainwise IP-100,2013-07-14 06:18:00,
2013-07-14 02:23:00,69.0,66.3,30.38,South,180,10.0,11.0,92,0.00,,,0.00,Rainwise IP-100,2013-07-14 06:23:00,
2013-07-14 02:28:00,69.0,67.0,30.38,SSE,157,9.0,12.0,95,0.00,,,0.00,Rainwise IP-100,2013-07-14 06:28:00,
2013-07-14 02:33:00,68.0,66.7,30.38,SE,135,6.0,12.0,95,0.00,,,0.00,Rainwise IP-100,2013-07-14 06:33:00,
2013-07-14 02:38:00,69.0,67.0,30.37,SE,135,6.0,9.0,95,0.00,,,0.00,Rainwise IP-100,2013-07-14 06:38:00,
2013-07-14 02:43:00,68.0,66.7,30.37,SSE,157,8.0,9.0,95,0.00,,,0.00,Rainwise IP-100,2013-07-14 06:43:00,
2013-07-14 02:48:00,69.0,66.7,30.37,South,180,9.0,9.0,93,0.00,,,0.00,Rainwise IP-100,2013-07-14 06:48:00,
2013-07-14 02:53:00,70.0,68.0,30.37,South,180,3.0,9.0,93,0.00,,,0.00,Rainwise IP-100,2013-07-14 06:53:00,
2013-07-14 02:58:00,70.0,67.5,30.37,SSW,202,7.0,10.0,92,0.00,,,0.00,Rainwise IP-100,2013-07-14 06:58:00,
2013-07-14 03:03:00,70.0,68.0,30.37,South,180,5.0,9.0,93,0.00,,,0.00,Rainwise IP-100,2013-07-14 07:03:00,
2013-07-14 03:08:00,70.0,67.5,30.37,SSE,157,7.0,9.0,92,0.00,,,0.00,Rainwise IP-100,2013-07-14 07:08:00,
2013-07-14 03:13:00,70.0,67.5,30.37,South,180,9.0,10.0,92,0.00,,,0.00,Rainwise IP-100,2013-07-14 07:13:00,
2013-07-14 03:18:00,70.0,67.5,30.37,SSE,157,7.0,10.0,92,0.00,,,0.00,Rainwise IP-100,2013-07-14 07:18:00,
2013-07-14 03:23:00,70.0,67.5,30.37,South,180,7.0,10.0,92,0.00,,,0.00,Rainwise IP-100,2013-07-14 07:23:00,
2013-07-14 03:28:00,71.0,68.0,30.37,SSW,202,9.0,11.0,91,0.00,,,0.00,Rainwise IP-100,2013-07-14 07:28:00,
2013-07-14 03:33:00,70.0,67.5,30.37,South,180,9.0,10.0,92,0.00,,,0.00,Rainwise IP-100,2013-07-14 07:33:00,
2013-07-14 03:38:00,71.0,68.5,30.37,SW,225,7.0,12.0,92,0.00,,,0.00,Rainwise IP-100,2013-07-14 07:38:00,
2013-07-14 03:43:00,71.0,68.5,30.37,WSW,247,8.0,10.0,92,0.00,,,0.00,Rainwise IP-100,2013-07-14 07:43:00,
2013-07-14 03:48:00,71.0,68.5,30.37,SW,225,2.0,14.0,92,0.00,,,0.00,Rainwise IP-100,2013-07-14 07:48:00,
2013-07-14 03:53:00,71.0,68.5,30.37,WSW,247,5.0,10.0,92,0.00,,,0.00,Rainwise IP-100,2013-07-14 07:53:00,
2013-07-14 03:58:00,71.0,68.5,30.37,WSW,247,5.0,8.0,92,0.00,,,0.00,Rainwise IP-100,2013-07-14 07:58:00,
2013-07-14 04:03:00,70.0,68.0,30.37,SW,225,7.0,7.0,93,0.00,,,0.00,Rainwise IP-100,2013-07-14 08:03:00,
2013-07-14 04:08:00,70.0,68.5,30.37,NNE,22,0.0,7.0,94,0.00,,,0.00,Rainwise IP-100,2013-07-14 08:08:00,
2013-07-14 04:13:00,69.0,67.0,30.37,South,180,2.0,4.0,95,0.00,,,0.00,Rainwise IP-100,2013-07-14 08:13:00,
2013-07-14 04:18:00,69.0,67.0,30.37,SSE,157,6.0,7.0,94,0.00,,,0.00,Rainwise IP-100,2013-07-14 08:18:00,
2013-07-14 04:23:00,70.0,68.5,30.38,South,180,5.0,8.0,94,0.00,,,0.00,Rainwise IP-100,2013-07-14 08:23:00,
2013-07-14 04:28:00,70.0,68.0,30.38,South,180,6.0,10.0,93,0.00,,,0.00,Rainwise IP-100,2013-07-14 08:28:00,
2013-07-14 04:33:00,70.0,68.0,30.38,South,180,7.0,9.0,93,0.00,,,0.00,Rainwise IP-100,2013-07-14 08:33:00,
2013-07-14 04:38:00,70.0,68.0,30.38,South,180,5.0,9.0,93,0.00,,,0.00,Rainwise IP-100,2013-07-14 08:38:00,
2013-07-14 04:43:00,70.0,68.0,30.37,SW,225,5.0,7.0,93,0.00,,,0.00,Rainwise IP-100,2013-07-14 08:43:00,
2013-07-14 04:48:00,70.0,68.0,30.37,South,180,4.0,7.0,93,0.00,,,0.00,Rainwise IP-100,2013-07-14 08:48:00,
2013-07-14 04:53:00,70.0,68.0,30.38,South,180,1.0,5.0,93,0.00,,,0.00,Rainwise IP-100,2013-07-14 08:53:00,
2013-07-14 04:58:00,70.0,68.5,30.38,South,180,4.0,5.0,94,0.00,,,0.00,Rainwise IP-100,2013-07-14 08:58:00,
2013-07-14 05:03:00,70.0,68.0,30.38,SW,225,3.0,9.0,93,0.00,,,0.00,Rainwise IP-100,2013-07-14 09:03:00,
2013-07-14 05:08:00,70.0,68.0,30.38,SSW,202,2.0,6.0,93,0.00,,,0.00,Rainwise IP-100,2013-07-14 09:08:00,
2013-07-14 05:13:00,70.0,68.0,30.38,South,180,5.0,6.0,93,0.00,,,0.00,Rainwise IP-100,2013-07-14 09:13:00,
2013-07-14 05:18:00,70.0,68.0,30.38,SSW,202,10.0,10.0,93,0.00,,,0.00,Rainwise IP-100,2013-07-14 09:18:00,
2013-07-14 05:23:00,70.0,67.5,30.38,SW,225,6.0,10.0,92,0.00,,,0.00,Rainwise IP-100,2013-07-14 09:23:00,
2013-07-14 05:28:00,70.0,67.5,30.38,SW,225,3.0,9.0,92,0.00,,,0.00,Rainwise IP-100,2013-07-14 09:28:00,
2013-07-14 05:33:00,70.0,68.0,30.38,South,180,4.0,6.0,93,0.00,,,0.00,Rainwise IP-100,2013-07-14 09:33:00,
2013-07-14 05:38:00,69.0,66.3,30.38,East,90,1.0,4.0,92,0.00,,,0.00,Rainwise IP-100,2013-07-14 09:38:00,
2013-07-14 05:43:00,68.0,66.3,30.38,East,90,2.0,3.0,94,0.00,,,0.00,Rainwise IP-100,2013-07-14 09:43:00,
2013-07-14 05:48:00,67.0,66.7,30.39,East,90,2.0,3.0,98,0.00,,,0.00,Rainwise IP-100,2013-07-14 09:48:00,
2013-07-14 05:53:00,67.0,66.7,30.39,East,90,3.0,3.0,99,0.00,,,0.00,Rainwise IP-100,2013-07-14 09:53:00,
2013-07-14 05:58:00,67.0,66.7,30.39,East,90,0.0,4.0,99,0.00,,,0.00,Rainwise IP-100,2013-07-14 09:58:00,
2013-07-14 06:03:00,67.0,66.7,30.40,East,90,0.0,0.0,99,0.00,,,0.00,Rainwise IP-100,2013-07-14 10:03:00,
2013-07-14 06:08:00,67.0,66.7,30.40,East,90,2.0,2.0,99,0.00,,,0.00,Rainwise IP-100,2013-07-14 10:08:00,
2013-07-14 06:13:00,67.0,66.7,30.40,East,90,1.0,2.0,99,0.00,,,0.00,Rainwise IP-100,2013-07-14 10:13:00,
2013-07-14 06:18:00,67.0,66.7,30.40,East,90,0.0,1.0,99,0.00,,,0.00,Rainwise IP-100,2013-07-14 10:18:00,
2013-07-14 06:23:00,67.0,66.7,30.40,East,90,0.0,0.0,99,0.00,,,0.00,Rainwise IP-100,2013-07-14 10:23:00,
2013-07-14 06:28:00,67.0,66.7,30.40,East,90,0.0,0.0,99,0.00,,,0.00,Rainwise IP-100,2013-07-14 10:28:00,
2013-07-14 06:33:00,67.0,66.7,30.40,East,90,0.0,0.0,99,0.00,,,0.00,Rainwise IP-100,2013-07-14 10:33:00,
2013-07-14 06:38:00,67.0,66.7,30.41,East,90,0.0,0.0,99,0.00,,,0.00,Rainwise IP-100,2013-07-14 10:38:00,
2013-07-14 06:43:00,67.0,66.7,30.41,East,90,0.0,0.0,99,0.00,,,0.00,Rainwise IP-100,2013-07-14 10:43:00,
2013-07-14 06:48:00,67.0,66.7,30.41,East,90,0.0,0.0,99,0.00,,,0.00,Rainwise IP-100,2013-07-14 10:48:00,
2013-07-14 06:53:00,67.0,66.7,30.41,East,90,0.0,1.0,99,0.00,,,0.00,Rainwise IP-100,2013-07-14 10:53:00,
2013-07-14 06:58:00,67.0,66.7,30.41,East,90,0.0,0.0,99,0.00,,,0.00,Rainwise IP-100,2013-07-14 10:58:00,
2013-07-14 07:03:00,67.0,66.7,30.41,East,90,0.0,0.0,99,0.00,,,0.00,Rainwise IP-100,2013-07-14 11:03:00,
2013-07-14 07:08:00,68.0,67.5,30.41,East,90,0.0,0.0,99,0.00,,,0.00,Rainwise IP-100,2013-07-14 11:08:00,
2013-07-14 07:13:00,68.0,67.5,30.41,East,90,0.0,0.0,99,0.00,,,0.00,Rainwise IP-100,2013-07-14 11:13:00,
2013-07-14 07:15:00,68.0,67.5,30.41,East,90,0.0,0.0,99,0.00,,,0.00,Rainwise IP-100,2013-07-14 11:15:00,
2013-07-14 07:16:00,68.0,67.5,30.41,East,90,0.0,0.0,99,0.00,,,0.00,Rainwise IP-100,2013-07-14 11:16:00,
2013-07-14 07:21:00,68.0,67.5,30.41,East,90,0.0,0.0,99,0.00,,,0.00,Rainwise IP-100,2013-07-14 11:21:00,
2013-07-14 07:26:00,68.0,67.5,30.41,North,360,3.0,3.0,99,0.00,,,0.00,Rainwise IP-100,2013-07-14 11:26:00,
2013-07-14 07:31:00,68.0,67.5,30.41,North,360,0.0,3.0,99,0.00,,,0.00,Rainwise IP-100,2013-07-14 11:31:00,
2013-07-14 07:36:00,69.0,68.5,30.41,North,360,0.0,2.0,99,0.00,,,0.00,Rainwise IP-100,2013-07-14 11:36:00,
2013-07-14 07:41:00,69.0,68.5,30.41,North,360,1.0,3.0,99,0.00,,,0.00,Rainwise IP-100,2013-07-14 11:41:00,
2013-07-14 07:46:00,69.0,68.5,30.41,North,360,1.0,3.0,98,0.00,,,0.00,Rainwise IP-100,2013-07-14 11:46:00,
2013-07-14 07:51:00,70.0,69.3,30.40,NNE,22,1.0,3.0,97,0.00,,,0.00,Rainwise IP-100,2013-07-14 11:51:00,
2013-07-14 07:56:00,70.0,69.3,30.40,NNE,22,0.0,2.0,97,0.00,,,0.00,Rainwise IP-100,2013-07-14 11:56:00,
2013-07-14 08:01:00,70.0,69.0,30.41,East,90,0.0,0.0,96,0.00,,,0.00,Rainwise IP-100,2013-07-14 12:01:00,
2013-07-14 08:06:00,70.0,69.0,30.41,East,90,0.0,0.0,96,0.00,,,0.00,Rainwise IP-100,2013-07-14 12:06:00,
2013-07-14 08:11:00,71.0,69.7,30.40,East,90,0.0,2.0,96,0.00,,,0.00,Rainwise IP-100,2013-07-14 12:11:00,
2013-07-14 08:16:00,71.0,69.3,30.40,North,360,1.0,2.0,95,0.00,,,0.00,Rainwise IP-100,2013-07-14 12:16:00,
2013-07-14 08:21:00,71.0,69.0,30.41,North,360,4.0,4.0,94,0.00,,,0.00,Rainwise IP-100,2013-07-14 12:21:00,
2013-07-14 08:26:00,71.0,69.0,30.41,North,360,2.0,4.0,94,0.00,,,0.00,Rainwise IP-100,2013-07-14 12:26:00,
2013-07-14 08:31:00,72.0,70.0,30.40,North,360,0.0,4.0,94,0.00,,,0.00,Rainwise IP-100,2013-07-14 12:31:00,
2013-07-14 08:36:00,72.0,69.7,30.40,North,360,2.0,3.0,93,0.00,,,0.00,Rainwise IP-100,2013-07-14 12:36:00,
2013-07-14 08:41:00,73.0,70.5,30.39,NNW,337,1.0,4.0,92,0.00,,,0.00,Rainwise IP-100,2013-07-14 12:41:00,
2013-07-14 08:46:00,74.0,71.0,30.39,NNW,337,2.0,3.0,89,0.00,,,0.00,Rainwise IP-100,2013-07-14 12:46:00,
2013-07-14 08:51:00,74.0,69.7,30.39,South,180,4.0,4.0,86,0.00,,,0.00,Rainwise IP-100,2013-07-14 12:51:00,
2013-07-14 08:56:00,75.0,70.0,30.39,SW,225,0.0,4.0,84,0.00,,,0.00,Rainwise IP-100,2013-07-14 12:56:00,
2013-07-14 09:01:00,74.0,69.0,30.39,NW,315,4.0,5.0,84,0.00,,,0.00,Rainwise IP-100,2013-07-14 13:01:00,
2013-07-14 09:06:00,74.0,69.3,30.39,North,360,3.0,5.0,85,0.00,,,0.00,Rainwise IP-100,2013-07-14 13:06:00,
2013-07-14 09:11:00,74.0,70.0,30.39,North,360,2.0,5.0,87,0.00,,,0.00,Rainwise IP-100,2013-07-14 13:11:00,
2013-07-14 09:16:00,74.0,69.3,30.39,North,360,2.0,3.0,85,0.00,,,0.00,Rainwise IP-100,2013-07-14 13:16:00,
2013-07-14 09:21:00,74.0,69.7,30.39,North,360,2.0,5.0,86,0.00,,,0.00,Rainwise IP-100,2013-07-14 13:21:00,
2013-07-14 09:26:00,74.0,69.0,30.39,North,360,5.0,5.0,84,0.00,,,0.00,Rainwise IP-100,2013-07-14 13:26:00,
2013-07-14 09:31:00,74.0,69.0,30.39,NNW,337,0.0,6.0,84,0.00,,,0.00,Rainwise IP-100,2013-07-14 13:31:00,
2013-07-14 09:36:00,75.0,69.0,30.39,North,360,5.0,6.0,81,0.00,,,0.00,Rainwise IP-100,2013-07-14 13:36:00,
2013-07-14 09:41:00,75.0,69.7,30.39,North,360,0.0,6.0,83,0.00,,,0.00,Rainwise IP-100,2013-07-14 13:41:00,
2013-07-14 09:46:00,75.0,70.0,30.39,North,360,0.0,0.0,84,0.00,,,0.00,Rainwise IP-100,2013-07-14 13:46:00,
2013-07-14 09:51:00,76.0,69.7,30.39,NE,45,0.0,3.0,81,0.00,,,0.00,Rainwise IP-100,2013-07-14 13:51:00,
2013-07-14 09:56:00,77.0,70.0,30.39,North,360,3.0,4.0,79,0.00,,,0.00,Rainwise IP-100,2013-07-14 13:56:00,
2013-07-14 10:01:00,77.0,69.3,30.38,NNW,337,2.0,6.0,77,0.00,,,0.00,Rainwise IP-100,2013-07-14 14:01:00,
2013-07-14 10:06:00,77.0,69.3,30.38,NNW,337,5.0,6.0,77,0.00,,,0.00,Rainwise IP-100,2013-07-14 14:06:00,
2013-07-14 10:11:00,78.0,70.0,30.38,North,360,1.0,5.0,76,0.00,,,0.00,Rainwise IP-100,2013-07-14 14:11:00,
2013-07-14 10:16:00,78.0,69.7,30.38,North,360,0.0,2.0,75,0.00,,,0.00,Rainwise IP-100,2013-07-14 14:16:00,
2013-07-14 10:21:00,78.0,68.0,30.39,NNE,22,1.0,2.0,71,0.00,,,0.00,Rainwise IP-100,2013-07-14 14:21:00,
2013-07-14 10:26:00,78.0,69.0,30.39,ENE,67,1.0,3.0,73,0.00,,,0.00,Rainwise IP-100,2013-07-14 14:26:00,
2013-07-14 10:31:00,78.0,69.0,30.39,ENE,67,0.0,3.0,73,0.00,,,0.00,Rainwise IP-100,2013-07-14 14:31:00,
2013-07-14 10:36:00,78.0,69.0,30.39,North,360,1.0,5.0,73,0.00,,,0.00,Rainwise IP-100,2013-07-14 14:36:00,
2013-07-14 10:41:00,78.0,69.0,30.38,NE,45,1.0,5.0,73,0.00,,,0.00,Rainwise IP-100,2013-07-14 14:41:00,
2013-07-14 10:46:00,78.0,69.0,30.38,NE,45,1.0,3.0,73,0.00,,,0.00,Rainwise IP-100,2013-07-14 14:46:00,
2013-07-14 10:51:00,78.0,69.0,30.39,NNE,22,0.0,3.0,73,0.00,,,0.00,Rainwise IP-100,2013-07-14 14:51:00,
2013-07-14 10:56:00,79.0,68.5,30.39,NNE,22,2.0,3.0,70,0.00,,,0.00,Rainwise IP-100,2013-07-14 14:56:00,
2013-07-14 11:01:00,79.0,70.5,30.37,NE,45,2.0,4.0,75,0.00,,,0.00,Rainwise IP-100,2013-07-14 15:01:00,
2013-07-14 11:06:00,78.0,69.3,30.37,East,90,2.0,5.0,74,0.00,,,0.00,Rainwise IP-100,2013-07-14 15:06:00,
2013-07-14 11:11:00,78.0,68.0,30.39,ENE,67,0.0,5.0,71,0.00,,,0.00,Rainwise IP-100,2013-07-14 15:11:00,
2013-07-14 11:16:00,79.0,68.5,30.39,ENE,67,0.0,2.0,70,0.00,,,0.00,Rainwise IP-100,2013-07-14 15:16:00,
2013-07-14 11:21:00,78.0,68.5,30.39,ESE,112,0.0,5.0,72,0.00,,,0.00,Rainwise IP-100,2013-07-14 15:21:00,
2013-07-14 11:26:00,77.0,68.0,30.39,ESE,112,3.0,3.0,73,0.00,,,0.00,Rainwise IP-100,2013-07-14 15:26:00,
2013-07-14 11:31:00,77.0,69.0,30.39,ESE,112,1.0,6.0,76,0.00,,,0.00,Rainwise IP-100,2013-07-14 15:31:00,
2013-07-14 11:36:00,78.0,69.7,30.39,ESE,112,0.0,1.0,75,0.00,,,0.00,Rainwise IP-100,2013-07-14 15:36:00,
2013-07-14 11:41:00,78.0,69.3,30.38,East,90,0.0,3.0,74,0.00,,,0.00,Rainwise IP-100,2013-07-14 15:41:00,
2013-07-14 11:46:00,79.0,69.0,30.38,ENE,67,3.0,3.0,71,0.00,,,0.00,Rainwise IP-100,2013-07-14 15:46:00,
2013-07-14 11:51:00,78.0,68.0,30.37,East,90,2.0,4.0,71,0.00,,,0.00,Rainwise IP-100,2013-07-14 15:51:00,
2013-07-14 11:56:00,79.0,69.0,30.37,East,90,1.0,3.0,71,0.00,,,0.00,Rainwise IP-100,2013-07-14 15:56:00,
2013-07-14 12:01:00,79.0,68.0,30.37,ENE,67,1.0,2.0,69,0.00,,,0.00,Rainwise IP-100,2013-07-14 16:01:00,
2013-07-14 12:06:00,79.0,68.0,30.37,East,90,0.0,4.0,69,0.00,,,0.00,Rainwise IP-100,2013-07-14 16:06:00,
2013-07-14 12:11:00,78.0,69.0,30.38,SSE,157,1.0,5.0,73,0.00,,,0.00,Rainwise IP-100,2013-07-14 16:11:00,
2013-07-14 12:16:00,78.0,68.5,30.38,ESE,112,0.0,3.0,72,0.00,,,0.00,Rainwise IP-100,2013-07-14 16:16:00,
2013-07-14 12:21:00,79.0,67.5,30.37,ENE,67,0.0,3.0,68,0.00,,,0.00,Rainwise IP-100,2013-07-14 16:21:00,
2013-07-14 12:26:00,79.0,67.0,30.37,East,90,1.0,5.0,67,0.00,,,0.00,Rainwise IP-100,2013-07-14 16:26:00,
2013-07-14 12:31:00,80.0,68.5,30.37,East,90,0.0,3.0,68,0.00,,,0.00,Rainwise IP-100,2013-07-14 16:31:00,
2013-07-14 12:36:00,81.0,66.7,30.37,North,360,2.0,4.0,62,0.00,,,0.00,Rainwise IP-100,2013-07-14 16:36:00,
2013-07-14 12:41:00,82.0,67.5,30.36,North,360,3.0,5.0,62,0.00,,,0.00,Rainwise IP-100,2013-07-14 16:41:00,
2013-07-14 12:46:00,81.0,69.7,30.36,North,360,1.0,6.0,68,0.00,,,0.00,Rainwise IP-100,2013-07-14 16:46:00,
2013-07-14 12:51:00,82.0,69.3,30.36,North,360,1.0,3.0,65,0.00,,,0.00,Rainwise IP-100,2013-07-14 16:51:00,
2013-07-14 12:56:00,79.0,66.3,30.36,East,90,5.0,6.0,65,0.00,,,0.00,Rainwise IP-100,2013-07-14 16:56:00,
2013-07-14 13:01:00,79.0,67.5,30.37,SSE,157,2.0,6.0,68,0.00,,,0.00,Rainwise IP-100,2013-07-14 17:01:00,
2013-07-14 13:06:00,80.0,68.0,30.37,East,90,0.0,4.0,67,0.00,,,0.00,Rainwise IP-100,2013-07-14 17:06:00,
2013-07-14 13:11:00,82.0,67.5,30.35,SSW,202,0.0,6.0,62,0.00,,,0.00,Rainwise IP-100,2013-07-14 17:11:00,
2013-07-14 13:16:00,84.0,69.0,30.35,North,360,1.0,3.0,60,0.00,,,0.00,Rainwise IP-100,2013-07-14 17:16:00,
2013-07-14 13:21:00,83.0,68.5,30.35,WSW,247,1.0,9.0,61,0.00,,,0.00,Rainwise IP-100,2013-07-14 17:21:00,
2013-07-14 13:26:00,82.0,67.5,30.35,NNW,337,6.0,9.0,62,0.00,,,0.00,Rainwise IP-100,2013-07-14 17:26:00,
2013-07-14 13:31:00,82.0,66.7,30.35,West,270,0.0,8.0,60,0.00,,,0.00,Rainwise IP-100,2013-07-14 17:31:00,
2013-07-14 13:35:00,82.0,66.0,30.35,North,360,5.0,6.0,58,0.00,,,0.00,Rainwise IP-100,2013-07-14 17:35:00,
2013-07-14 13:40:00,83.0,69.0,30.35,NNW,337,2.0,7.0,62,0.00,,,0.00,Rainwise IP-100,2013-07-14 17:40:00,
2013-07-14 13:45:00,83.0,69.0,30.35,NE,45,0.0,7.0,62,0.00,,,0.00,Rainwise IP-100,2013-07-14 17:45:00,
2013-07-14 13:50:00,83.0,69.0,30.34,East,90,1.0,4.0,62,0.00,,,0.00,Rainwise IP-100,2013-07-14 17:50:00,
2013-07-14 13:55:00,82.0,68.0,30.34,East,90,4.0,6.0,63,0.00,,,0.00,Rainwise IP-100,2013-07-14 17:55:00,
2013-07-14 14:00:00,83.0,66.7,30.34,ENE,67,1.0,5.0,58,0.00,,,0.00,Rainwise IP-100,2013-07-14 18:00:00,
2013-07-14 14:05:00,83.0,68.5,30.34,SE,135,0.0,4.0,61,0.00,,,0.00,Rainwise IP-100,2013-07-14 18:05:00,
2013-07-14 14:10:00,83.0,68.5,30.33,SE,135,4.0,4.0,61,0.00,,,0.00,Rainwise IP-100,2013-07-14 18:10:00,
2013-07-14 14:15:00,84.0,67.0,30.33,East,90,2.0,5.0,57,0.00,,,0.00,Rainwise IP-100,2013-07-14 18:15:00,
2013-07-14 14:20:00,84.0,66.7,30.33,East,90,1.0,4.0,56,0.00,,,0.00,Rainwise IP-100,2013-07-14 18:20:00,
2013-07-14 14:25:00,83.0,66.7,30.33,East,90,1.0,4.0,58,0.00,,,0.00,Rainwise IP-100,2013-07-14 18:25:00,
2013-07-14 14:30:00,84.0,67.5,30.33,East,90,2.0,2.0,58,0.00,,,0.00,Rainwise IP-100,2013-07-14 18:30:00,
2013-07-14 14:35:00,84.0,69.7,30.33,South,180,5.0,6.0,62,0.00,,,0.00,Rainwise IP-100,2013-07-14 18:35:00,
2013-07-14 14:40:00,84.0,69.0,30.33,SSW,202,2.0,7.0,60,0.00,,,0.00,Rainwise IP-100,2013-07-14 18:40:00,
2013-07-14 14:45:00,83.0,67.0,30.33,South,180,0.0,6.0,59,0.00,,,0.00,Rainwise IP-100,2013-07-14 18:45:00,
2013-07-14 14:50:00,84.0,66.3,30.33,ENE,67,3.0,6.0,55,0.00,,,0.00,Rainwise IP-100,2013-07-14 18:50:00,
2013-07-14 14:55:00,85.0,66.3,30.33,East,90,0.0,3.0,54,0.00,,,0.00,Rainwise IP-100,2013-07-14 18:55:00,
2013-07-14 15:00:00,83.0,66.0,30.33,NE,45,6.0,6.0,56,0.00,,,0.00,Rainwise IP-100,2013-07-14 19:00:00,
2013-07-14 15:05:00,83.0,66.0,30.33,East,90,0.0,6.0,56,0.00,,,0.00,Rainwise IP-100,2013-07-14 19:05:00,
2013-07-14 15:10:00,84.0,66.7,30.32,NNE,22,0.0,3.0,56,0.00,,,0.00,Rainwise IP-100,2013-07-14 19:10:00,
2013-07-14 15:15:00,84.0,66.7,30.32,East,90,3.0,4.0,56,0.00,,,0.00,Rainwise IP-100,2013-07-14 19:15:00,
2013-07-14 15:20:00,85.0,69.7,30.31,East,90,0.0,6.0,60,0.00,,,0.00,Rainwise IP-100,2013-07-14 19:20:00,
2013-07-14 15:25:00,86.0,68.5,30.31,East,90,2.0,4.0,56,0.00,,,0.00,Rainwise IP-100,2013-07-14 19:25:00,
2013-07-14 15:30:00,87.0,69.0,30.30,North,360,4.0,6.0,55,0.00,,,0.00,Rainwise IP-100,2013-07-14 19:30:00,
2013-07-14 15:35:00,86.0,66.0,30.30,NNE,22,2.0,6.0,51,0.00,,,0.00,Rainwise IP-100,2013-07-14 19:35:00,
2013-07-14 15:40:00,86.0,66.7,30.31,NNE,22,0.0,2.0,53,0.00,,,0.00,Rainwise IP-100,2013-07-14 19:40:00,
2013-07-14 15:45:00,85.0,66.3,30.31,NNE,22,1.0,2.0,54,0.00,,,0.00,Rainwise IP-100,2013-07-14 19:45:00,
2013-07-14 15:50:00,86.0,66.7,30.30,NNE,22,0.0,1.0,53,0.00,,,0.00,Rainwise IP-100,2013-07-14 19:50:00,
2013-07-14 15:55:00,85.0,67.5,30.30,WNW,292,6.0,6.0,56,0.00,,,0.00,Rainwise IP-100,2013-07-14 19:55:00,
2013-07-14 16:00:00,85.0,67.0,30.31,SW,225,5.0,8.0,55,0.00,,,0.00,Rainwise IP-100,2013-07-14 20:00:00,
2013-07-14 16:05:00,83.0,66.0,30.31,South,180,5.0,7.0,56,0.00,,,0.00,Rainwise IP-100,2013-07-14 20:05:00,
2013-07-14 16:10:00,84.0,67.5,30.31,NNW,337,0.0,6.0,58,0.00,,,0.00,Rainwise IP-100,2013-07-14 20:10:00,
2013-07-14 16:15:00,85.0,67.5,30.31,NNE,22,3.0,3.0,56,0.00,,,0.00,Rainwise IP-100,2013-07-14 20:15:00,
2013-07-14 16:20:00,85.0,66.3,30.30,ENE,67,0.0,5.0,54,0.00,,,0.00,Rainwise IP-100,2013-07-14 20:20:00,
2013-07-14 16:25:00,85.0,65.0,30.30,NE,45,4.0,4.0,51,0.00,,,0.00,Rainwise IP-100,2013-07-14 20:25:00,
2013-07-14 16:30:00,84.0,66.3,30.31,East,90,3.0,5.0,55,0.00,,,0.00,Rainwise IP-100,2013-07-14 20:30:00,
2013-07-14 16:35:00,84.0,66.3,30.31,North,360,3.0,7.0,55,0.00,,,0.00,Rainwise IP-100,2013-07-14 20:35:00,
2013-07-14 16:40:00,84.0,66.7,30.31,NW,315,3.0,9.0,56,0.00,,,0.00,Rainwise IP-100,2013-07-14 20:40:00,
2013-07-14 16:45:00,82.0,67.0,30.31,NNW,337,7.0,9.0,61,0.00,,,0.00,Rainwise IP-100,2013-07-14 20:45:00,
2013-07-14 16:50:00,83.0,66.7,30.31,NNW,337,10.0,11.0,58,0.00,,,0.00,Rainwise IP-100,2013-07-14 20:50:00,
2013-07-14 16:55:00,82.0,67.0,30.31,NW,315,6.0,11.0,61,0.00,,,0.00,Rainwise IP-100,2013-07-14 20:55:00,
2013-07-14 17:00:00,83.0,68.5,30.31,NW,315,8.0,9.0,61,0.00,,,0.00,Rainwise IP-100,2013-07-14 21:00:00,
2013-07-14 17:05:00,82.0,67.5,30.31,NNW,337,4.0,11.0,62,0.00,,,0.00,Rainwise IP-100,2013-07-14 21:05:00,
2013-07-14 17:10:00,81.0,66.3,30.32,NNW,337,4.0,10.0,61,0.00,,,0.00,Rainwise IP-100,2013-07-14 21:10:00,
2013-07-14 17:15:00,82.0,66.0,30.32,North,360,6.0,8.0,58,0.00,,,0.00,Rainwise IP-100,2013-07-14 21:15:00,
2013-07-14 17:20:00,82.0,66.3,30.31,NW,315,5.0,7.0,59,0.00,,,0.00,Rainwise IP-100,2013-07-14 21:20:00,
2013-07-14 17:25:00,82.0,66.7,30.31,NW,315,6.0,10.0,60,0.00,,,0.00,Rainwise IP-100,2013-07-14 21:25:00,
2013-07-14 17:30:00,82.0,67.0,30.31,North,360,8.0,9.0,61,0.00,,,0.00,Rainwise IP-100,2013-07-14 21:30:00,
2013-07-14 17:35:00,82.0,66.7,30.31,NW,315,4.0,12.0,60,0.00,,,0.00,Rainwise IP-100,2013-07-14 21:35:00,
2013-07-14 17:40:00,82.0,66.3,30.31,NNW,337,3.0,8.0,59,0.00,,,0.00,Rainwise IP-100,2013-07-14 21:40:00,
2013-07-14 17:45:00,82.0,65.5,30.31,NNW,337,7.0,9.0,57,0.00,,,0.00,Rainwise IP-100,2013-07-14 21:45:00,
2013-07-14 17:50:00,81.0,66.0,30.31,NNW,337,5.0,9.0,60,0.00,,,0.00,Rainwise IP-100,2013-07-14 21:50:00,
2013-07-14 17:55:00,82.0,67.5,30.31,North,360,6.0,7.0,62,0.00,,,0.00,Rainwise IP-100,2013-07-14 21:55:00,
2013-07-14 18:00:00,82.0,66.7,30.31,NW,315,3.0,7.0,60,0.00,,,0.00,Rainwise IP-100,2013-07-14 22:00:00,
2013-07-14 18:05:00,83.0,67.0,30.31,North,360,8.0,8.0,59,0.00,,,0.00,Rainwise IP-100,2013-07-14 22:05:00,
2013-07-14 18:10:00,83.0,66.7,30.30,NW,315,6.0,8.0,58,0.00,,,0.00,Rainwise IP-100,2013-07-14 22:10:00,
2013-07-14 18:15:00,82.0,66.3,30.30,NW,315,4.0,7.0,59,0.00,,,0.00,Rainwise IP-100,2013-07-14 22:15:00,
2013-07-14 18:20:00,82.0,66.7,30.31,NW,315,6.0,6.0,60,0.00,,,0.00,Rainwise IP-100,2013-07-14 22:20:00,
2013-07-14 18:25:00,82.0,66.3,30.31,SW,225,4.0,6.0,59,0.00,,,0.00,Rainwise IP-100,2013-07-14 22:25:00,
2013-07-14 18:30:00,83.0,66.3,30.30,NW,315,2.0,5.0,57,0.00,,,0.00,Rainwise IP-100,2013-07-14 22:30:00,
2013-07-14 18:35:00,82.0,67.0,30.30,SW,225,6.0,7.0,61,0.00,,,0.00,Rainwise IP-100,2013-07-14 22:35:00,
2013-07-14 18:40:00,81.0,66.7,30.31,WSW,247,5.0,7.0,62,0.00,,,0.00,Rainwise IP-100,2013-07-14 22:40:00,
2013-07-14 18:45:00,80.0,66.7,30.31,WNW,292,2.0,7.0,64,0.00,,,0.00,Rainwise IP-100,2013-07-14 22:45:00,
2013-07-14 18:50:00,81.0,68.5,30.31,WSW,247,2.0,6.0,65,0.00,,,0.00,Rainwise IP-100,2013-07-14 22:50:00,
2013-07-14 18:55:00,80.0,67.0,30.31,SW,225,2.0,8.0,65,0.00,,,0.00,Rainwise IP-100,2013-07-14 22:55:00,
2013-07-14 19:00:00,81.0,68.5,30.30,WNW,292,5.0,5.0,65,0.00,,,0.00,Rainwise IP-100,2013-07-14 23:00:00,
2013-07-14 19:05:00,81.0,67.0,30.30,SW,225,2.0,7.0,63,0.00,,,0.00,Rainwise IP-100,2013-07-14 23:05:00,
2013-07-14 19:10:00,81.0,67.0,30.30,West,270,2.0,6.0,63,0.00,,,0.00,Rainwise IP-100,2013-07-14 23:10:00,
2013-07-14 19:15:00,81.0,66.3,30.30,West,270,4.0,4.0,61,0.00,,,0.00,Rainwise IP-100,2013-07-14 23:15:00,
2013-07-14 19:20:00,81.0,67.0,30.30,WSW,247,4.0,5.0,63,0.00,,,0.00,Rainwise IP-100,2013-07-14 23:20:00,
2013-07-14 19:25:00,81.0,67.5,30.30,SW,225,3.0,7.0,64,0.00,,,0.00,Rainwise IP-100,2013-07-14 23:25:00,
2013-07-14 19:30:00,80.0,66.7,30.30,SW,225,3.0,6.0,64,0.00,,,0.00,Rainwise IP-100,2013-07-14 23:30:00,
2013-07-14 19:35:00,80.0,67.0,30.30,SW,225,2.0,5.0,65,0.00,,,0.00,Rainwise IP-100,2013-07-14 23:35:00,
2013-07-14 19:40:00,80.0,68.0,30.31,South,180,3.0,5.0,67,0.00,,,0.00,Rainwise IP-100,2013-07-14 23:40:00,
2013-07-14 19:45:00,80.0,68.5,30.31,SW,225,3.0,5.0,68,0.00,,,0.00,Rainwise IP-100,2013-07-14 23:45:00,
2013-07-14 19:50:00,80.0,69.3,30.31,SW,225,3.0,6.0,70,0.00,,,0.00,Rainwise IP-100,2013-07-14 23:50:00,
2013-07-14 19:55:00,79.0,68.0,30.31,South,180,4.0,5.0,69,0.00,,,0.00,Rainwise IP-100,2013-07-14 23:55:00,
2013-07-14 20:00:00,78.0,68.0,30.32,SSW,202,6.0,6.0,71,0.00,,,0.00,Rainwise IP-100,2013-07-15 00:00:00,
2013-07-14 20:05:00,78.0,68.5,30.32,SW,225,3.0,7.0,72,0.00,,,0.00,Rainwise IP-100,2013-07-15 00:05:00,
2013-07-14 20:10:00,77.0,68.0,30.32,SSW,202,4.0,7.0,73,0.00,,,0.00,Rainwise IP-100,2013-07-15 00:10:00,
2013-07-14 20:15:00,77.0,68.0,30.32,SSW,202,5.0,8.0,73,0.00,,,0.00,Rainwise IP-100,2013-07-15 00:15:00,
2013-07-14 20:20:00,77.0,69.3,30.31,South,180,4.0,6.0,77,0.00,,,0.00,Rainwise IP-100,2013-07-15 00:20:00,
2013-07-14 20:25:00,76.0,69.7,30.31,South,180,5.0,6.0,81,0.00,,,0.00,Rainwise IP-100,2013-07-15 00:25:00,
2013-07-14 20:30:00,76.0,70.0,30.32,SSE,157,5.0,6.0,82,0.00,,,0.00,Rainwise IP-100,2013-07-15 00:30:00,
2013-07-14 20:35:00,75.0,69.3,30.32,SE,135,5.0,6.0,82,0.00,,,0.00,Rainwise IP-100,2013-07-15 00:35:00,
2013-07-14 20:40:00,75.0,69.7,30.33,SSE,157,3.0,6.0,83,0.00,,,0.00,Rainwise IP-100,2013-07-15 00:40:00,
2013-07-14 20:45:00,75.0,69.3,30.33,SSE,157,3.0,6.0,82,0.00,,,0.00,Rainwise IP-100,2013-07-15 00:45:00,
2013-07-14 20:50:00,75.0,69.3,30.33,SSE,157,0.0,5.0,82,0.00,,,0.00,Rainwise IP-100,2013-07-15 00:50:00,
2013-07-14 20:55:00,74.0,69.7,30.33,South,180,3.0,4.0,86,0.00,,,0.00,Rainwise IP-100,2013-07-15 00:55:00,
2013-07-14 21:00:00,73.0,69.0,30.33,South,180,5.0,5.0,86,0.00,,,0.00,Rainwise IP-100,2013-07-15 01:00:00,
2013-07-14 21:05:00,74.0,69.3,30.33,SE,135,6.0,6.0,85,0.00,,,0.00,Rainwise IP-100,2013-07-15 01:05:00,
2013-07-14 21:11:00,73.0,69.0,30.33,SSE,157,4.0,7.0,86,0.00,,,0.00,Rainwise IP-100,2013-07-15 01:11:00,
2013-07-14 21:16:00,73.0,69.0,30.33,SSE,157,0.0,5.0,86,0.00,,,0.00,Rainwise IP-100,2013-07-15 01:16:00,
2013-07-14 21:21:00,73.0,69.0,30.34,SSE,157,0.0,0.0,87,0.00,,,0.00,Rainwise IP-100,2013-07-15 01:21:00,
2013-07-14 21:26:00,72.0,69.0,30.34,SSE,157,0.0,0.0,90,0.00,,,0.00,Rainwise IP-100,2013-07-15 01:26:00,
2013-07-14 21:31:00,72.0,69.7,30.34,SSE,157,0.0,2.0,93,0.00,,,0.00,Rainwise IP-100,2013-07-15 01:31:00,
2013-07-14 21:36:00,71.0,69.0,30.34,SSE,157,0.0,0.0,94,0.00,,,0.00,Rainwise IP-100,2013-07-15 01:36:00,
2013-07-14 21:41:00,71.0,69.3,30.35,SSE,157,2.0,2.0,95,0.00,,,0.00,Rainwise IP-100,2013-07-15 01:41:00,
2013-07-14 21:46:00,71.0,69.3,30.35,SSE,157,0.0,4.0,95,0.00,,,0.00,Rainwise IP-100,2013-07-15 01:46:00,
2013-07-14 21:51:00,71.0,69.0,30.35,SSE,157,0.0,2.0,94,0.00,,,0.00,Rainwise IP-100,2013-07-15 01:51:00,
2013-07-14 21:56:00,71.0,69.3,30.35,SSE,157,3.0,3.0,95,0.00,,,0.00,Rainwise IP-100,2013-07-15 01:56:00,
2013-07-14 22:01:00,71.0,69.0,30.35,SSE,157,0.0,4.0,94,0.00,,,0.00,Rainwise IP-100,2013-07-15 02:01:00,
2013-07-14 22:06:00,71.0,69.0,30.35,SSE,157,0.0,1.0,94,0.00,,,0.00,Rainwise IP-100,2013-07-15 02:06:00,
2013-07-14 22:11:00,70.0,69.0,30.35,SSE,157,0.0,0.0,96,0.00,,,0.00,Rainwise IP-100,2013-07-15 02:11:00,
2013-07-14 22:16:00,70.0,69.3,30.35,SSE,157,0.0,0.0,97,0.00,,,0.00,Rainwise IP-100,2013-07-15 02:16:00,
2013-07-14 22:21:00,70.0,69.3,30.35,SSE,157,0.0,0.0,97,0.00,,,0.00,Rainwise IP-100,2013-07-15 02:21:00,
2013-07-14 22:26:00,70.0,69.7,30.35,SSE,157,3.0,3.0,98,0.00,,,0.00,Rainwise IP-100,2013-07-15 02:26:00,
2013-07-14 22:31:00,71.0,69.7,30.34,SSW,202,4.0,6.0,96,0.00,,,0.00,Rainwise IP-100,2013-07-15 02:31:00,
2013-07-14 22:36:00,71.0,69.7,30.34,South,180,6.0,7.0,96,0.00,,,0.00,Rainwise IP-100,2013-07-15 02:36:00,
2013-07-14 22:41:00,70.0,69.3,30.35,South,180,6.0,7.0,97,0.00,,,0.00,Rainwise IP-100,2013-07-15 02:41:00,
2013-07-14 22:46:00,70.0,69.3,30.35,SSE,157,4.0,7.0,97,0.00,,,0.00,Rainwise IP-100,2013-07-15 02:46:00,
2013-07-14 22:51:00,70.0,69.3,30.35,South,180,2.0,5.0,97,0.00,,,0.00,Rainwise IP-100,2013-07-15 02:51:00,
2013-07-14 22:56:00,70.0,69.3,30.35,South,180,0.0,4.0,97,0.00,,,0.00,Rainwise IP-100,2013-07-15 02:56:00,
2013-07-14 23:01:00,69.0,68.5,30.34,WNW,292,0.0,2.0,98,0.00,,,0.00,Rainwise IP-100,2013-07-15 03:01:00,
2013-07-14 23:06:00,69.0,68.5,30.34,WNW,292,0.0,3.0,99,0.00,,,0.00,Rainwise IP-100,2013-07-15 03:06:00,
2013-07-14 23:11:00,69.0,68.5,30.35,WNW,292,0.0,2.0,99,0.00,,,0.00,Rainwise IP-100,2013-07-15 03:11:00,
2013-07-14 23:16:00,69.0,68.5,30.35,WSW,247,1.0,0.0,99,0.00,,,0.00,Rainwise IP-100,2013-07-15 03:16:00,
2013-07-14 23:21:00,69.0,68.5,30.35,SW,225,3.0,4.0,99,0.00,,,0.00,Rainwise IP-100,2013-07-15 03:21:00,
2013-07-14 23:26:00,69.0,68.5,30.35,SW,225,0.0,3.0,99,0.00,,,0.00,Rainwise IP-100,2013-07-15 03:26:00,
2013-07-14 23:31:00,69.0,68.5,30.35,SW,225,2.0,3.0,99,0.00,,,0.00,Rainwise IP-100,2013-07-15 03:31:00,
2013-07-14 23:36:00,69.0,68.5,30.35,SW,225,1.0,3.0,99,0.00,,,0.00,Rainwise IP-100,2013-07-15 03:36:00,
2013-07-14 23:41:00,69.0,68.5,30.35,SW,225,0.0,2.0,99,0.00,,,0.00,Rainwise IP-100,2013-07-15 03:41:00,
2013-07-14 23:46:00,69.0,68.5,30.35,SW,225,0.0,0.0,99,0.00,,,0.00,Rainwise IP-100,2013-07-15 03:46:00,
2013-07-14 23:51:00,68.0,67.5,30.34,SW,225,1.0,2.0,99,0.00,,,0.00,Rainwise IP-100,2013-07-15 03:51:00,
2013-07-14 23:56:00,68.0,67.5,30.34,SW,225,1.0,3.0,99,0.00,,,0.00,Rainwise IP-100,2013-07-15 03:56:00,